YUZGU 12 (RS6S) (53311 NORAD) Tracking and Keplerian Element Data

This shows tracking and keplerian element data for the satellite.

Feedback or suggestion? Click here.




ElementValue
Catalog53311
NameYUZGU 12 (RS6S)
Epoch Orbit1914
Epoch Day325.12278022
Epoch Year2022
RAAN273.2522
Inclination51.6361
Eccentricity0.0008628
Argument of Perigee103.1036
Mean Anonmoly257.0924
Mean Motion15.67177093
Decay Rate0.00124148
L11 53311U 98067TW 22325.12278022 .00124148 00000+0 11215-2 0 9992
L22 53311 51.6361 273.2522 0008628 103.1036 257.0924 15.67177093 19148



Live tracking and technical data element details for YUZGU 12 (RS6S) (NORAD 53311). YUZGU 12 (RS6S) can be tracked NOW for your location showing map with azimuth and elevation plus other details from your city location.







IsCatalogInMostPopularTable: catalog: 53311, numindb: 10
Update: records affected: 1



GetName: 53311 YUZGU 12 (RS6S)

Hit Count: updated at: Tue, 29 Nov 2022 00:22:57 GMT